Skip Page Navigation
NASA JPL Caltech
NASA Logo - Jet Propulsion Laboratory + View the NASA Portal
+ Near-Earth Object (NEO) Program
Search JPL
JPL Home Earth Solar System Stars & Galaxies Technology
JPL Solar System Dynamics
BODIES ORBITS EPHEMERIDES TOOLS PHYSICAL DATA DISCOVERY FAQ SITE MAP
JPL Small-Body Database Browser
Search: [ help ]  
9829 Murillo (1973 SJ1)
Classification: Outer Main-belt Asteroid          SPK-ID: 2009829
Ephemeris | Orbit Diagram | Orbital Elements | Physical Parameters | Discovery Circumstances | Close-Approach Data ]

[ show orbit diagram ]
Orbital Elements at Epoch 2456800.5 (2014-May-23.0) TDB
Reference: JPL 7 (heliocentric ecliptic J2000)
 Element Value Uncertainty (1-sigma)   Units 
e .1242741522493319 6.8092e-08  
a 3.954835279545034 6.7479e-08 AU
q 3.463351477893826 2.6146e-07 AU
i 2.638009489163722 6.9871e-06 deg
node 181.8807614263086 0.00012452 deg
peri 8.482749614393894 0.00012696 deg
M 229.8238729766052 2.8096e-05 deg
tp 2457839.271132259315
(2017-Mar-26.77113226)
0.00023902 JED
period 2872.704974132063
7.87
7.3523e-05
2.013e-07
d
yr
n .125317428431288 3.2073e-09 deg/d
Q 4.446319081196243 7.5865e-08 AU
  Orbit Determination Parameters
   # obs. used (total)      1125  
   data-arc span      14741 days (40.36 yr)  
   first obs. used      1973-09-19  
   last obs. used      2014-01-28  
   planetary ephem.      DE431  
   SB-pert. ephem.      SB431-BIG16  
   condition code      0  
   fit RMS      .51707  
   data source      ORB  
   producer      Otto Matic  
   solution date      2014-Jun-09 19:39:04  

Additional Information
 Earth MOID = 2.46417 AU 
 T_jup = 3.044 
[ show covariance matrix ]

Ephemeris | Orbit Diagram | Orbital Elements | Physical Parameters | Discovery Circumstances | Close-Approach Data ]

Physical Parameter Table
Parameter Symbol Value Units Sigma Reference Notes
absolute magnitude H 12.1 mag n/a MPO279619  
rotation period rot_per 4. h n/a Asteroid Lightcurve DataBase (Rev. 2013-Sep-12) lower-limit; Incomplete or inconclusive result.
Published Reference List:
[Slyusarev, I.G.; Shevchenko, V.G.; Belskaya, I.N.; Krugly, Yu.N.; Chiorny, V.G. (2012) ACM 2012, #6398.]

9829 Murillo           Discovered 1973 Sept. 19 by C. J. van Houten and I. van Houten-Groeneveld on Palomar Schmidt plates taken by T. Gehrels.
Bartolomé Estéban Murillo (1618-1682) created many religious paintings for churches. The painter from Seville is famous for his genre pictures of children that were poor but happy, and these are imitated even today.
NOTE: some special characters may not display properly (any characters within {} are an attempt to place the proper accent above a character)
Reference: 19990402/MPCPages.arcLast Updated: 2010-06-11

[ show close-approach data ]
Alternate Designations
 1973 SJ1 = 1978 JR3 
Ephemeris | Orbit Diagram | Orbital Elements | Physical Parameters | Discovery Circumstances | Close-Approach Data ]
ABOUT SSD CREDITS/AWARDS PRIVACY/COPYRIGHT GLOSSARY LINKS
FirstGov 2014-Jul-24 15:26 UT
(server date/time)  
NASA Home Page
Site Manager:   Donald K. Yeomans
Webmaster  Alan B. Chamberlin